FW2237 Weather Reports


Display with metric or nautical units.
time (UTC)temp
F
wind
direction
speed
MPH
gust
MPH
rain 1hr
in
rain 24hr
in
rain mn
in
humidity
%
barometer
mb
20260510234601 56 268 0.0 0.0 0.00 0.08 0.00 93 978.8
20260510233102 56 314 0.0 1.0 0.00 0.08 0.00 93 979.1
20260510231555 57 267 0.0 0.0 0.00 0.08 0.00 94 979.2
20260510230055 57 267 0.0 1.0 0.00 0.08 0.00 94 978.9
20260510224555 57 289 0.0 1.0 0.00 0.08 0.00 95 978.9
20260510223100 56 274 0.0 0.0 0.00 0.08 0.00 95 979.0
20260510221550 55 274 0.0 0.0 0.00 0.08 0.00 93 978.8
20260510220046 56 274 0.0 0.0 0.00 0.08 0.00 93 978.7
20260510214549 56 274 0.0 0.0 0.00 0.08 0.08 93 978.9
20260510213047 56 277 0.0 0.0 0.00 0.08 0.08 92 978.7
20260510211540 57 281 0.0 0.0 0.00 0.08 0.08 92 978.6
20260510210043 58 262 0.0 0.0 0.00 0.08 0.08 91 978.6
20260510204541 59 267 0.0 1.0 0.00 0.08 0.08 91 978.6
20260510203033 60 264 0.0 1.0 0.00 0.08 0.08 91 978.7
20260510201533 60 284 0.0 5.0 0.00 0.08 0.08 91 978.8
20260510200032 60 281 0.0 0.0 0.00 0.08 0.08 89 978.8
20260510194547 60 281 0.0 0.0 0.00 0.08 0.08 88 978.7
20260510193030 61 281 0.0 0.0 0.00 0.08 0.08 87 978.6
20260510191530 62 280 0.0 0.0 0.00 0.08 0.08 87 978.5
20260510190044 63 274 0.0 2.0 0.00 0.08 0.08 85 978.4
20260510184529 64 276 1.0 4.0 0.00 0.08 0.08 85 978.4
20260510183028 65 299 0.0 2.0 0.00 0.08 0.08 83 978.3
20260510181527 67 261 2.0 6.0 0.00 0.08 0.08 80 978.1
20260510180033 69 146 0.0 1.0 0.00 0.08 0.08 74 977.9
20260510174527 70 348 0.0 5.0 0.00 0.08 0.08 69 977.8
20260510173026 71 267 1.0 6.0 0.00 0.08 0.08 67 977.7
20260510171525 72 300 1.0 6.0 0.00 0.08 0.08 66 977.6
20260510170025 74 273 0.0 2.0 0.00 0.08 0.08 63 977.5
20260510164524 75 174 0.0 2.0 0.00 0.08 0.08 61 977.4
20260510163023 76 159 0.0 3.0 0.00 0.08 0.08 60 977.3
20260510161525 76 128 0.0 4.0 0.00 0.08 0.08 60 977.2
20260510160032 77 143 1.0 5.0 0.00 0.08 0.08 60 977.1
20260510154524 77 136 0.0 5.0 0.00 0.08 0.08 59 977.2
20260510153021 78 131 0.0 4.0 0.00 0.08 0.08 59 977.2
20260510151525 79 190 0.0 5.0 0.00 0.08 0.08 57 977.3
20260510150020 79 133 1.0 4.0 0.00 0.08 0.08 58 977.4
20260510144522 79 144 0.0 6.0 0.00 0.08 0.08 60 977.4
20260510143019 79 163 0.0 2.0 0.00 0.08 0.08 57 977.5
20260510141519 80 160 1.0 3.0 0.00 0.08 0.08 54 977.5
20260510140018 81 196 0.0 6.0 0.00 0.08 0.08 55 977.7
20260510134516 81 184 0.0 5.0 0.00 0.08 0.08 56 977.5
20260510133014 82 312 1.0 5.0 0.00 0.08 0.08 54 977.8
20260510131513 81 177 1.0 7.0 0.00 0.08 0.08 56 977.8
20260510130013 81 110 1.0 6.0 0.00 0.08 0.08 55 977.9
20260510124512 81 168 0.0 9.0 0.00 0.08 0.08 57 978.0
20260510123012 82 219 1.0 7.0 0.00 0.08 0.08 55 978.1
20260510121511 81 125 1.0 9.0 0.00 0.08 0.08 56 978.0
20260510120010 82 164 1.0 6.0 0.00 0.08 0.08 56 978.0
20260510114516 81 198 3.0 10.0 0.00 0.08 0.08 57 978.0
20260510113009 81 162 3.0 12.0 0.00 0.08 0.08 56 978.2
20260510111508 82 114 2.0 8.0 0.00 0.08 0.08 55 978.2
20260510110008 82 146 3.0 11.0 0.00 0.08 0.08 55 978.3
20260510104506 82 216 2.0 8.0 0.00 0.08 0.08 55 978.4
20260510103005 81 169 3.0 10.0 0.00 0.08 0.08 55 978.5
20260510101509 81 132 2.0 7.0 0.00 0.08 0.08 55 978.4
20260510100003 81 143 2.0 8.0 0.00 0.08 0.08 57 978.5
20260510094608 80 115 1.0 8.0 0.00 0.08 0.08 56 978.5
20260510093101 79 175 1.0 7.0 0.00 0.08 0.08 59 978.8
20260510091555 79 149 0.0 6.0 0.00 0.08 0.08 60 978.8
20260510090053 77 105 1.0 7.0 0.00 0.08 0.08 61 978.6
20260510084550 77 168 1.0 6.0 0.00 0.08 0.08 62 978.6
20260510083049 76 128 1.0 6.0 0.00 0.08 0.08 66 978.5
20260510081547 76 169 1.0 7.0 0.00 0.08 0.08 65 978.4
20260510080049 75 171 0.0 6.0 0.00 0.08 0.08 70 978.2
20260510074545 74 120 0.0 4.0 0.00 0.08 0.08 75 978.2
20260510073040 72 92 0.0 3.0 0.00 0.08 0.08 79 978.1
20260510071537 70 150 0.0 4.0 0.00 0.08 0.08 87 978.0
20260510070038 70 171 0.0 2.0 0.00 0.08 0.08 87 978.1
20260510064533 70 148 0.0 0.0 0.00 0.08 0.08 93 978.0
20260510063037 67 136 0.0 0.0 0.00 0.08 0.08 94 978.0
20260510061531 66 166 0.0 1.0 0.00 0.08 0.08 96 977.9
20260510060033 64 200 0.0 0.0 0.00 0.08 0.08 96 977.8
20260510054531 62 199 0.0 0.0 0.00 0.08 0.08 97 977.8
20260510053028 61 203 0.0 0.0 0.00 0.08 0.08 97 977.6
20260510051527 60 203 0.0 0.0 0.00 0.08 0.08 97 977.3
20260510050028 0 0.0 0.0 0.00 0.08 0.08 977.3
20260510044519 0 0.0 0.0 0.00 0.08 0.08 977.4
20260510043015 0 0.0 0.0 0.00 0.08 0.08 977.4
20260510041510 0 0.0 0.0 0.00 0.08 0.08 977.3
20260510040007 0 0.0 0.0 0.00 0.08 0.08 977.5
20260510034502 0 0.0 0.0 0.00 0.08 0.08 977.5
20260510033126 0 211 0.0 0.0 0.00 0.08 0.08 977.5
20260510031619 60 300 0.0 0.0 0.00 0.08 0.08 96 977.6
20260510030055 60 275 0.0 1.0 0.00 0.08 0.08 96 977.5
20260510024554 60 259 0.0 2.0 0.02 0.08 0.08 96 978.1
20260510023052 61 295 0.0 1.0 0.02 0.08 0.08 96 978.3
20260510021551 61 278 0.0 0.0 0.02 0.08 0.08 95 978.0
20260510020051 61 288 1.0 3.0 0.03 0.08 0.08 95 978.6
20260510014605 61 276 0.0 1.0 0.02 0.06 0.06 95 979.0
20260510013050 61 268 0.0 3.0 0.03 0.06 0.06 95 979.2
20260510011552 61 270 0.0 0.0 0.05 0.06 0.06 95 979.2
20260510010059 61 281 0.0 2.0 0.05 0.05 0.05 94 979.5
20260510004554 62 229 0.0 1.0 0.04 0.04 0.04 93 979.2
20260510003054 62 275 0.0 2.0 0.02 0.02 0.02 92 979.6
20260510001543 64 274 0.0 4.0 0.01 0.01 0.01 89 980.8
20260510000046 65 94 0.0 10.0 0.00 0.00 0.00 85 981.1